Regional Weather Roundup
Issued by NWS

Home | Current Version | Previous Version | Graphics & Text | Print | Product List | Glossary On
Versions: 1 2 3 4 5 6 7 8 9 10 11 12 13 14 15 16 17 18 19 20 21 22 23 24 25 26 27 28 29 30 31 32 33 34 35 36 37 38 39 40 41 42 43 44 45 46 47 48 49 50
000
ASUS43 KOAX 291910
RWRNE

WEATHER ROUNDUP FOR NEBRASKA
NATIONAL WEATHER SERVICE OMAHA NE
200 PM CDT WED MAR 29 2017

NOTES: SATELLITE DATA IS BEING USED TO AUGMENT CLOUD COVER ABOVE
       12000 FEET.
       "FAIR" INDICATES FEW OR NO CLOUDS BELOW 12,000 FEET WITH NO
       SIGNIFICANT WEATHER AND/OR OBSTRUCTIONS TO VISIBILITY.

  * THESE STATIONS DO NOT REPORT WEATHER SUCH AS RAIN...SNOW OR FOG.

NEZ001>004-019>022-054>056-292000-
NEBRASKA PANHANDLE

CITY           SKY/WX    TMP DP  RH WIND       PRES   REMARKS
SCOTTSBLUFF    CLOUDY    51  39  63 N6        30.04F
ALLIANCE       CLOUDY    47  38  71 N14       30.03F
CHADRON        CLOUDY    52  41  66 NE5       30.05F
KIMBALL        CLOUDY    48  40  73 N14       30.04F
SIDNEY         CLOUDY    46  38  73 N14       30.03F
$$

NEZ057>060-069>072-079>082-292000-
SOUTHWEST NEBRASKA

CITY           SKY/WX    TMP DP  RH WIND       PRES   REMARKS
NORTH PLATTE   CLOUDY    48  39  71 N24G31    29.97F
IMPERIAL       CLOUDY    46  38  73 N23G29    29.98F
LEXINGTON      LGT RAIN  44  42  89 N20G25    29.93F
MCCOOK         CLOUDY    45  42  89 N25       29.93F
OGALLALA       CLOUDY    47  41  77 N16       30.00F
$$

NEZ005>010-023>029-035>040-094-292000-
NORTH CENTRAL NEBRASKA

CITY           SKY/WX    TMP DP  RH WIND       PRES   REMARKS
VALENTINE      CLOUDY    52  37  56 N13       30.04F
AINSWORTH      CLOUDY    47  43  86 NE14      30.03F
BROKEN BOW     CLOUDY    45  39  79 N18G26    29.96F
O`NEILL        CLOUDY    45  42  91 NE18      30.03F
ORD            CLOUDY    44  39  82 NE22G28   29.96F
THEDFORD       CLOUDY    49  40  71 NE15G23   30.01F
$$

NEZ041-046>049-061>064-073>077-083>087-292000-
SOUTH CENTRAL NEBRASKA

CITY           SKY/WX    TMP DP  RH WIND       PRES   REMARKS
GRAND ISLAND   LGT RAIN  41  41 100 NE20G32   29.91F FOG
AURORA         DRIZZLE   42  41  98 NE24G32   29.90S
HASTINGS       LGT RAIN  43  41  93 NE21      29.88F
HEBRON         LGT RAIN  45  43  93 NE23G30   29.82F
HOLDREGE       LGT RAIN  43  40  90 N22G32    29.89F
KEARNEY *      PTSUNNY   43  39  87 N24       29.91F
YORK           LGT RAIN  41  41 100 NE23G29   29.89F
$$

NEZ011>018-030>034-042>045-292000-
NORTHEAST NEBRASKA

CITY           SKY/WX    TMP DP  RH WIND       PRES   REMARKS
NORFOLK        LGT RAIN  43  40  89 NE14      29.97F FOG
ALBION         LGT RAIN  45  40  85 NE16G23   29.97F
BLAIR          RAIN      42  40  95 NE20G26   29.91S
FREMONT        RAIN      44  43  97 NE13G24   29.92F
TEKAMAH        RAIN      43  40  89 NE20G26   29.94F FOG
WAYNE          LGT RAIN  45  44  97 NE17G24   29.99S
$$

NEZ050>053-065>068-078-088>093-292000-
SOUTHEAST NEBRASKA

CITY           SKY/WX    TMP DP  RH WIND       PRES   REMARKS
LINCOLN        LGT RAIN  45  42  89 NE21      29.89F
OMAHA EPPLEY   RAIN      43  38  82 NE14G23   29.93R
BEATRICE       RAIN      44  44  99 NE15G25   29.82F
FALLS CITY     LGT RAIN  47  45  93 NE15      29.77F FOG
NEBRASKA CITY  RAIN      42  42 100 NE18G24   29.84F
PLATTSMOUTH    RAIN      42  39  90 NE15G21   29.88R
$$

NEZ044-045-051>053-067-292000-
OMAHA AREA

CITY           SKY/WX    TMP DP  RH WIND       PRES   REMARKS
OMAHA EPPLEY   RAIN      43  38  82 NE14G23   29.93R
BLAIR          RAIN      42  40  95 NE20G26   29.91S
FREMONT        RAIN      44  43  97 NE13G24   29.92F
MILLARD        RAIN      44  42  90 NE12G18   29.92R
OFFUTT AFB     HVY RAIN  43  39  87 NE16      29.90R FOG
PLATTSMOUTH    RAIN      42  39  90 NE15G21   29.88R
WAHOO          LGT RAIN  43  42  94 NE24      29.90F
$$




USA.gov is the U.S. government's official web portal to all federal, state and local government web resources and services.